sat.trackr.live / text

‹ back to catalog

STARLINK-32911

NORAD 63096 · 2025-037V

PAYLOAD ACTIVE UNKNOWN

§ Identity

Operator
Country
US
Launch date
2025-02-23
Launch site
AFWTR
Launch vehicle
Mass (kg)
RCS (m²)

Purposes: comms

External: N2YO · Heavens-Above · Gunter

§ Orbital elements

Epoch: 2026-09-20T05:59:09.404160Z

Period
94.14 min
Inclination
70.0034°
Eccentricity
0.0001184
Mean motion
15.29590073 rev/d
Perigee alt
476.2 km
Apogee alt
477.8 km
Semi-major
6,855.2 km
B*
3.6574e-4
RAAN
221.5721°
Arg perigee
274.9480°
Mean anomaly
85.1560°
Rev number
8,779

§ Raw data

STARLINK-329111 63096U 25037V   26263.24941440  .00010403  00000+0  36574-3 0  99932 63096  70.0034 221.5721 0001184 274.9480  85.1560 15.29590073 87795

JSON: /api/v1/satellites/63096 · /tle

For live sub-satellite position, see the globe view (requires WebGL).

§ Visibility from observer

Set your observer location to see the next 7 days of passes ≥ 10°. The values pass through the URL so the page stays shareable.

No JS? Fill the form by hand. The geolocation button needs JavaScript.